| time (UTC) | temp F | wind direction | speed knots | gust knots | rain 1hr in | rain 24hr in | rain mn in | humidity % | barometer mb |
| 20260506133100 | 55 | 236 | 1.7 | 6.1 | 0.00 | 0.00 | 0.00 | 61 | 1014.6 |
| 20260506131556 | 55 | 273 | 3.5 | 7.0 | 0.00 | 0.00 | 0.00 | 62 | 1014.6 |
| 20260506130054 | 53 | 286 | 1.7 | 7.0 | 0.00 | 0.00 | 0.00 | 64 | 1014.6 |
| 20260506124553 | 53 | 224 | 4.3 | 8.7 | 0.00 | 0.00 | 0.00 | 66 | 1014.6 |
| 20260506123052 | 51 | 218 | 3.5 | 7.8 | 0.00 | 0.00 | 0.00 | 67 | 1014.6 |
| 20260506121552 | 51 | 241 | 2.6 | 7.8 | 0.00 | 0.00 | 0.00 | 70 | 1014.6 |
| 20260506120051 | 50 | 247 | 1.7 | 5.2 | 0.00 | 0.00 | 0.00 | 68 | 1014.7 |
| 20260506114550 | 51 | 263 | 1.7 | 6.1 | 0.00 | 0.00 | 0.00 | 67 | 1014.7 |
| 20260506113049 | 53 | 328 | 2.6 | 7.0 | 0.00 | 0.00 | 0.00 | 64 | 1014.8 |
| 20260506111547 | 53 | 40 | 1.7 | 6.1 | 0.00 | 0.00 | 0.00 | 49 | 1014.8 |
| 20260506110047 | 53 | 137 | 1.7 | 5.2 | 0.00 | 0.00 | 0.00 | 51 | 1015.0 |
| 20260506104554 | 52 | 121 | 2.6 | 7.0 | 0.00 | 0.00 | 0.00 | 49 | 1015.1 |
| 20260506103045 | 55 | 169 | 1.7 | 3.5 | 0.00 | 0.00 | 0.00 | 47 | 1015.1 |
| 20260506101541 | 51 | 120 | 2.6 | 8.7 | 0.00 | 0.00 | 0.00 | 51 | 1015.2 |
| 20260506100040 | 49 | 90 | 1.7 | 5.2 | 0.00 | 0.00 | 0.00 | 54 | 1015.2 |
| 20260506094540 | 49 | 119 | 3.5 | 7.8 | 0.00 | 0.00 | 0.00 | 52 | 1015.4 |
| 20260506093041 | 49 | 84 | 6.1 | 8.7 | 0.00 | 0.00 | 0.00 | 50 | 1015.4 |
| 20260506091536 | 51 | 80 | 3.5 | 6.1 | 0.00 | 0.00 | 0.00 | 50 | 1015.4 |
| 20260506090033 | 50 | 147 | 0.9 | 6.1 | 0.00 | 0.00 | 0.00 | 53 | 1015.5 |
| 20260506084536 | 50 | 113 | 0.9 | 2.6 | 0.00 | 0.00 | 0.00 | 64 | 1015.4 |
| 20260506083029 | 50 | 106 | 1.7 | 5.2 | 0.00 | 0.00 | 0.00 | 66 | 1015.5 |
| 20260506081525 | 49 | 182 | 0.9 | 3.5 | 0.00 | 0.00 | 0.00 | 71 | 1015.5 |
| 20260506073015 | 45 | 178 | 0.9 | 3.5 | 0.00 | 0.00 | 0.00 | 75 | 1015.5 |
| 20260506071512 | 44 | 130 | 1.7 | 3.5 | 0.00 | 0.00 | 0.00 | 76 | 1015.5 |
| 20260506061604 | 42 | 90 | 5.2 | 7.8 | 0.00 | 0.00 | 0.00 | 77 | 1015.1 |
| 20260506044550 | 41 | 103 | 3.5 | 7.0 | 0.00 | 0.00 | 0.00 | 77 | 1015.0 |
| 20260506043044 | 41 | 113 | 3.5 | 8.7 | 0.00 | 0.00 | 0.00 | 77 | 1014.9 |
| 20260506041552 | 41 | 133 | 3.5 | 11.3 | 0.00 | 0.00 | 0.00 | 77 | 1015.0 |
| 20260506040043 | 42 | 88 | 7.0 | 12.2 | 0.00 | 0.00 | 0.00 | 76 | 1015.0 |
| 20260506034546 | 41 | 96 | 4.3 | 10.4 | 0.00 | 0.00 | 0.00 | 77 | 1015.1 |
| 20260506033041 | 42 | 123 | 2.6 | 11.3 | 0.00 | 0.00 | 0.00 | 77 | 1015.2 |
| 20260506031539 | 41 | 86 | 3.5 | 8.7 | 0.00 | 0.00 | 0.00 | 77 | 1015.2 |
| 20260506030039 | 41 | 338 | 1.7 | 4.3 | 0.00 | 0.00 | 0.00 | 78 | 1015.2 |
| 20260506024537 | 42 | 72 | 1.7 | 6.1 | 0.00 | 0.00 | 0.00 | 76 | 1015.2 |
| 20260506023034 | 42 | 106 | 2.6 | 5.2 | 0.00 | 0.00 | 0.00 | 76 | 1015.2 |
| 20260506021541 | 42 | 103 | 2.6 | 7.0 | 0.00 | 0.00 | 0.00 | 77 | 1015.2 |
| 20260506020033 | 42 | 98 | 4.3 | 8.7 | 0.00 | 0.00 | 0.00 | 77 | 1015.2 |
| 20260506014532 | 42 | 123 | 2.6 | 8.7 | 0.00 | 0.00 | 0.00 | 78 | 1015.2 |
| 20260506013034 | 42 | 115 | 3.5 | 9.6 | 0.00 | 0.00 | 0.00 | 78 | 1015.2 |
| 20260506011553 | 42 | 79 | 4.3 | 8.7 | 0.00 | 0.00 | 0.00 | 77 | 1015.3 |
| 20260506010030 | 43 | 101 | 3.5 | 7.8 | 0.00 | 0.00 | 0.00 | 77 | 1015.4 |
| 20260506004540 | 42 | 88 | 4.3 | 11.3 | 0.00 | 0.00 | 0.00 | 78 | 1015.3 |
| 20260506003030 | 42 | 109 | 6.1 | 9.6 | 0.00 | 0.00 | 0.00 | 78 | 1015.3 |
| 20260506001525 | 43 | 92 | 4.3 | 8.7 | 0.00 | 0.00 | 0.00 | 78 | 1015.3 |
| 20260506000022 | 43 | 141 | 3.5 | 7.8 | 0.00 | 0.00 | 0.00 | 78 | 1015.3 |
| 20260505234521 | 43 | 84 | 3.5 | 7.0 | 0.00 | 0.00 | 0.00 | 78 | 1015.4 |
| 20260505233027 | 43 | 146 | 2.6 | 7.0 | 0.00 | 0.00 | 0.00 | 77 | 1015.4 |
| 20260505231520 | 44 | 86 | 6.1 | 7.8 | 0.00 | 0.00 | 0.00 | 77 | 1015.5 |
| 20260505230013 | 44 | 152 | 0.0 | 5.2 | 0.00 | 0.00 | 0.00 | 77 | 1015.6 |
| 20260505224512 | 44 | 97 | 1.7 | 7.8 | 0.00 | 0.00 | 0.00 | 77 | 1015.6 |
| 20260505223016 | 44 | 98 | 6.1 | 8.7 | 0.00 | 0.00 | 0.00 | 77 | 1015.5 |
| 20260505221511 | 44 | 123 | 6.1 | 9.6 | 0.00 | 0.00 | 0.00 | 77 | 1015.5 |
| 20260505220022 | 44 | 90 | 4.3 | 8.7 | 0.00 | 0.00 | 0.00 | 77 | 1015.4 |
| 20260505214609 | 44 | 88 | 3.5 | 7.8 | 0.00 | 0.00 | 0.00 | 77 | 1015.5 |
| 20260505213011 | 45 | 116 | 2.6 | 7.0 | 0.00 | 0.00 | 0.00 | 77 | 1015.4 |
| 20260505211507 | 45 | 128 | 2.6 | 6.1 | 0.00 | 0.00 | 0.00 | 77 | 1015.3 |
| 20260505210007 | 45 | 90 | 3.5 | 6.1 | 0.00 | 0.00 | 0.00 | 77 | 1015.2 |
| 20260505204505 | 45 | 134 | 1.7 | 5.2 | 0.00 | 0.00 | 0.00 | 77 | 1015.2 |
| 20260505203008 | 45 | 92 | 2.6 | 5.2 | 0.00 | 0.00 | 0.00 | 77 | 1015.2 |
| 20260505201504 | 45 | 137 | 0.9 | 7.8 | 0.00 | 0.00 | 0.00 | 77 | 1015.2 |
| 20260505200003 | 45 | 127 | 6.1 | 12.2 | 0.00 | 0.00 | 0.00 | 77 | 1015.1 |
| 20260505194503 | 46 | 121 | 5.2 | 11.3 | 0.00 | 0.00 | 0.00 | 77 | 1015.0 |
| 20260505193001 | 46 | 78 | 7.0 | 13.9 | 0.00 | 0.00 | 0.00 | 77 | 1014.9 |
| 20260505191501 | 46 | 86 | 5.2 | 12.2 | 0.00 | 0.00 | 0.00 | 76 | 1014.7 |
| 20260505190100 | 46 | 90 | 8.7 | 15.6 | 0.00 | 0.00 | 0.00 | 76 | 1014.7 |
| 20260505184600 | 47 | 83 | 7.0 | 13.0 | 0.00 | 0.00 | 0.00 | 75 | 1014.6 |
| 20260505183101 | 47 | 72 | 5.2 | 11.3 | 0.00 | 0.00 | 0.00 | 75 | 1014.6 |
| 20260505181607 | 48 | 73 | 7.8 | 14.8 | 0.00 | 0.00 | 0.00 | 75 | 1014.6 |
| 20260505180057 | 48 | 90 | 7.0 | 15.6 | 0.00 | 0.00 | 0.00 | 76 | 1014.4 |
| 20260505174557 | 49 | 82 | 9.6 | 16.5 | 0.00 | 0.00 | 0.00 | 76 | 1014.3 |
| 20260505173056 | 49 | 94 | 9.6 | 15.6 | 0.00 | 0.00 | 0.00 | 77 | 1014.3 |
| 20260505171556 | 50 | 90 | 6.1 | 11.3 | 0.00 | 0.00 | 0.00 | 76 | 1014.4 |
| 20260505170056 | 50 | 88 | 6.1 | 13.0 | 0.00 | 0.00 | 0.00 | 75 | 1014.4 |
| 20260505164601 | 50 | 88 | 6.1 | 11.3 | 0.00 | 0.00 | 0.00 | 75 | 1014.3 |
| 20260505163054 | 50 | 36 | 4.3 | 9.6 | 0.00 | 0.00 | 0.00 | 75 | 1014.2 |
| 20260505161557 | 50 | 92 | 3.5 | 10.4 | 0.00 | 0.00 | 0.00 | 76 | 1014.2 |
| 20260505153107 | 52 | 311 | 3.5 | 9.6 | 0.00 | 0.00 | 0.00 | 73 | 1014.1 |
| 20260505151551 | 52 | 297 | 4.3 | 8.7 | 0.00 | 0.00 | 0.00 | 72 | 1014.1 |